Date String (YYYY-MM-DD hh:mm:ss) UTC,Instrument flags,Ambient pressure (hPa),Sample flow (lpm),Bypass flow (lpm),Sample temperature (°C),Ambient temperature (°C),ASC tube jacket temperature (°C),LED temperature (°C),Box temperature (°C),Sample RH (%),Span deviation,Mass concentration (μg/m³),Mass concentration (μg/m³),Mass concentration (μg/m³)
DateTimeUTC,F1_M11,P_M11,Q1_M11,Q2_M11,T1_M11,T2_M11,T3_M11,T4_M11,T5_M11,U1_M11,ZSPAN_M11,X0_M11,X2_M11,X1_M11
2021-10-24 12:00:00,,0819.4,5.00,0.00,27.8,26.8,00.0,36.9,29.5,16.9,0000.0,0019.24,0006.08,0004.31
2021-10-24 12:01:00,,0819.4,5.01,0.00,27.8,26.8,00.0,36.9,29.5,16.7,0000.0,0019.50,0006.12,0004.36
2021-10-24 12:02:00,,0819.4,5.01,0.00,27.8,26.8,00.0,36.9,29.5,16.8,0000.0,0019.74,0006.17,0004.40
2021-10-24 12:03:00,,0819.4,4.99,0.00,27.8,26.8,00.0,36.9,29.5,16.9,0000.0,0019.67,0006.26,0004.46
2021-10-24 12:04:00,,0819.3,4.98,0.00,27.7,26.7,00.0,36.9,29.4,16.8,0000.0,0019.77,0006.36,0004.49
2021-10-24 12:05:00,,0819.2,5.01,0.00,27.7,26.7,00.0,36.9,29.4,17.2,0000.0,0019.72,0006.50,0004.56
2021-10-24 12:06:00,,0819.3,5.01,0.00,27.7,26.7,00.0,36.9,29.4,17.2,0000.0,0019.38,0006.57,0004.63
2021-10-24 12:07:00,,0819.3,5.01,0.00,27.7,26.7,00.0,36.9,29.5,17.2,0000.0,0019.09,0006.68,0004.69
2021-10-24 12:08:00,,0819.4,5.01,0.00,27.7,26.7,00.0,36.9,29.5,17.1,0000.0,0019.09,0006.84,0004.76
2021-10-24 12:09:00,,0819.4,5.00,0.00,27.7,26.7,00.0,36.9,29.5,17.1,0000.0,0018.11,0006.92,0004.82
2021-10-24 12:10:00,,0819.4,5.00,0.00,27.7,26.7,00.0,36.8,29.5,17.2,0000.0,0017.99,0006.95,0004.84
2021-10-24 12:11:00,,0819.5,4.99,0.00,27.7,26.7,00.0,36.8,29.4,17.1,0000.0,0018.02,0006.94,0004.85
2021-10-24 12:12:00,,0819.5,5.00,0.00,27.7,26.7,00.0,36.8,29.4,17.0,0000.0,0018.04,0007.01,0004.86
2021-10-24 12:13:00,,0819.5,5.00,0.00,27.7,26.7,00.0,36.8,29.4,16.9,0000.0,0019.03,0007.03,0004.84
2021-10-24 12:14:00,,0819.5,5.00,0.00,27.6,26.7,00.0,36.8,29.4,16.8,0000.0,0018.74,0007.00,0004.83
2021-10-24 12:15:00,,0819.5,5.00,0.00,27.6,26.7,00.0,36.8,29.4,17.0,0000.0,0019.18,0007.02,0004.84
2021-10-24 12:16:00,,0819.5,4.99,0.00,27.6,26.7,00.0,36.8,29.4,17.2,0000.0,0020.37,0007.04,0004.84
2021-10-24 12:17:00,,0819.5,5.00,0.00,27.6,26.7,00.0,36.8,29.4,17.2,0000.0,0020.98,0007.06,0004.83
2021-10-24 12:18:00,,0819.6,5.01,0.00,27.6,26.7,00.0,36.8,29.4,17.3,0000.0,0020.94,0007.04,0004.82
2021-10-24 12:19:00,,0819.6,4.99,0.00,27.6,26.7,00.0,36.8,29.4,17.3,0000.0,0020.37,0006.95,0004.83
2021-10-24 12:20:00,,0819.7,4.99,0.00,27.6,26.7,00.0,36.8,29.4,17.2,0000.0,0019.84,0006.95,0004.82
2021-10-24 12:21:00,,0819.6,5.00,0.00,27.6,26.7,00.0,36.8,29.4,17.1,0000.0,0019.36,0006.92,0004.81
2021-10-24 12:22:00,,0819.6,5.00,0.00,27.6,26.7,00.0,36.8,29.4,17.0,0000.0,0019.51,0006.93,0004.83
2021-10-24 12:23:00,,0819.5,5.00,0.00,27.6,26.7,00.0,36.8,29.4,16.9,0000.0,0019.55,0006.98,0004.87
2021-10-24 12:24:00,,0819.6,4.99,0.00,27.6,26.7,00.0,36.7,29.4,16.8,0000.0,0019.35,0007.05,0004.92
2021-10-24 12:25:00,,0819.6,5.01,0.00,27.6,26.7,00.0,36.7,29.4,16.9,0000.1,0020.54,0007.14,0004.97
2021-10-24 12:26:00,,0819.6,5.00,0.00,27.6,26.7,00.0,36.8,29.4,17.0,0001.0,0020.48,0007.28,0005.01
2021-10-24 12:27:00,,0819.7,5.01,0.00,27.6,26.6,00.0,36.8,29.3,16.8,0001.0,0019.26,0007.30,0005.03
2021-10-24 12:28:00,,0819.7,5.00,0.00,27.6,26.6,00.0,36.7,29.3,16.6,0001.6,0018.58,0007.28,0005.04
2021-10-24 12:29:00,,0819.6,5.00,0.00,27.6,26.6,00.0,36.7,29.3,16.7,0002.0,0018.01,0007.27,0005.04
2021-10-24 12:30:00,,0819.6,5.01,0.00,27.6,26.6,00.0,36.7,29.4,16.7,0001.8,0018.18,0007.30,0005.03
2021-10-24 12:31:00,,0819.7,4.99,0.00,27.6,26.6,00.0,36.7,29.4,16.7,0001.4,0018.28,0007.33,0005.04
2021-10-24 12:32:00,,0819.7,5.00,0.00,27.6,26.6,00.0,36.7,29.4,16.8,0001.5,0019.18,0007.41,0005.07
2021-10-24 12:33:00,,0819.7,5.00,0.00,27.6,26.6,00.0,36.7,29.4,16.8,0001.7,0019.04,0007.41,0005.10
2021-10-24 12:34:00,,0819.8,5.01,0.00,27.6,26.6,00.0,36.7,29.4,16.8,0001.3,0018.68,0007.32,0005.11
2021-10-24 12:35:00,,0819.8,4.98,0.00,27.6,26.6,00.0,36.7,29.4,16.8,0001.3,0017.68,0007.27,0005.11
2021-10-24 12:36:00,,0819.8,5.02,0.00,27.6,26.6,00.0,36.7,29.4,16.7,0001.7,0016.97,0007.23,0005.10
2021-10-24 12:37:00,,0819.9,4.99,0.00,27.6,26.6,00.0,36.7,29.4,16.6,0000.0,0016.61,0007.12,0005.09
2021-10-24 12:38:00,,0819.8,5.01,0.00,27.6,26.6,00.0,36.7,29.3,16.7,0000.0,0016.66,0007.10,0005.07
2021-10-24 12:39:00,,0819.8,4.99,0.00,27.6,26.6,00.0,36.7,29.3,16.8,0000.0,0017.34,0007.18,0005.10
2021-10-24 12:40:00,,0819.7,5.00,0.00,27.6,26.6,00.0,36.7,29.4,16.8,0000.0,0018.36,0007.23,0005.12
2021-10-24 12:41:00,,0819.7,5.00,0.00,27.6,26.6,00.0,36.7,29.3,16.9,0000.0,0018.59,0007.27,0005.15
2021-10-24 12:42:00,,0819.7,5.00,0.00,27.6,26.6,00.0,36.7,29.3,17.2,0000.0,0018.28,0007.26,0005.19
2021-10-24 12:43:00,,0819.5,4.99,0.00,27.6,26.6,00.0,36.7,29.3,17.3,0000.0,0017.36,0007.18,0005.19
2021-10-24 12:44:00,,0819.6,4.99,0.00,27.6,26.6,00.0,36.7,29.3,17.4,0000.0,0017.20,0007.25,0005.20
2021-10-24 12:45:00,,0819.7,5.00,0.00,27.5,26.6,00.0,36.7,29.3,17.3,0000.0,0017.29,0007.26,0005.20
2021-10-24 12:46:00,,0819.7,5.00,0.00,27.5,26.6,00.0,36.7,29.3,17.0,0000.0,0017.84,0007.27,0005.20
2021-10-24 12:47:00,,0819.7,5.00,0.00,27.5,26.6,00.0,36.7,29.3,16.9,0001.2,0018.65,0007.27,0005.20
2021-10-24 12:48:00,,0819.8,5.01,0.00,27.5,26.6,00.0,36.7,29.3,17.0,0002.8,0018.66,0007.28,0005.22
2021-10-24 12:49:00,,0819.8,4.99,0.00,27.5,26.5,00.0,36.7,29.3,16.9,0003.3,0018.13,0007.20,0005.25
2021-10-24 12:50:00,,0819.9,5.00,0.00,27.5,26.5,00.0,36.7,29.2,16.8,0003.7,0018.03,0007.16,0005.25
2021-10-24 12:51:00,,0819.9,5.02,0.00,27.5,26.5,00.0,36.6,29.3,16.9,0003.6,0017.26,0007.13,0005.24
2021-10-24 12:52:00,,0819.9,5.01,0.00,27.5,26.5,00.0,36.6,29.3,17.0,0000.5,0016.93,0007.15,0005.21
2021-10-24 12:53:00,,0819.9,4.99,0.00,27.5,26.5,00.0,36.6,29.3,17.1,0003.5,0016.93,0007.13,0005.17
2021-10-24 12:54:00,,0820.0,5.01,0.00,27.5,26.5,00.0,36.6,29.2,17.0,0003.3,0017.47,0007.12,0005.13
2021-10-24 12:55:00,,0819.9,5.00,0.00,27.5,26.5,00.0,36.6,29.3,17.0,0003.5,0017.48,0007.06,0005.09
2021-10-24 12:56:00,,0819.9,5.00,0.00,27.5,26.5,00.0,36.6,29.2,17.0,0003.4,0018.47,0007.11,0005.08
2021-10-24 12:57:00,,0819.9,5.00,0.00,27.5,26.5,00.0,36.6,29.3,17.0,0003.2,0017.89,0007.07,0005.05
2021-10-24 12:58:00,,0820.0,5.00,0.00,27.5,26.5,00.0,36.6,29.3,16.9,0002.9,0017.19,0007.11,0005.04
2021-10-24 12:59:00,,0820.1,5.01,0.00,27.5,26.5,00.0,36.6,29.3,16.9,0002.9,0016.65,0007.10,0005.02
